CST,Max TemperatureF,Mean TemperatureF,Min TemperatureF,Max Dew PointF,MeanDew PointF,Min DewpointF,Max Humidity, Mean Humidity, Min Humidity, Max Sea Level PressureIn, Mean Sea Level PressureIn, Min Sea Level PressureIn, Max VisibilityMiles, Mean VisibilityMiles, Min VisibilityMiles, Max Wind SpeedMPH, Mean Wind SpeedMPH, Max Gust SpeedMPH,PrecipitationIn, CloudCover, Events, WindDirDegrees
2012-11-1,86,65,44,52,45,41,93,60,20,30.05,29.98,29.91,10,10,10,12,2,17,0.00,0,,246
2012-11-2,86,67,48,55,49,41,100,60,22,29.98,29.92,29.86,10,10,7,12,2,17,0.00,0,,214
2012-11-3,71,62,53,54,42,34,88,50,28,30.13,30.06,29.93,10,10,7,12,5,17,0.00,0,,44
2012-11-4,69,58,46,46,40,34,93,56,38,30.19,30.12,30.06,10,10,10,9,4,,0.00,1,,62
2012-11-5,71,58,44,48,38,25,100,57,18,30.13,30.08,30.03,10,9,3,14,3,26,0.00,0,,8
2012-11-6,69,52,35,41,36,34,93,59,27,30.17,30.11,30.05,10,10,10,8,1,,0.03,0,,284
2012-11-7,71,56,41,39,33,27,81,46,20,30.21,30.13,30.07,10,10,10,6,1,,0.00,0,,198
2012-11-8,78,62,46,55,45,36,77,52,34,30.09,30.00,29.91,10,10,10,18,6,28,0.00,0,,171
2012-11-9,80,71,62,59,56,52,88,61,42,30.00,29.94,29.87,10,10,10,18,9,28,0.00,3,,191
2012-11-10,78,71,64,59,56,52,83,61,42,29.98,29.88,29.78,10,10,10,22,13,32,0.00,3,,186
2012-11-11,71,54,37,61,48,30,100,75,59,30.30,29.97,29.76,10,10,2,21,10,34,0.48,5,Rain,2
2012-11-12,51,40,30,30,25,18,93,62,26,30.52,30.46,30.31,10,10,10,7,2,,0.00,0,,37
2012-11-13,57,42,28,34,26,18,100,59,21,30.51,30.43,30.32,10,10,10,10,2,,0.00,1,,169
2012-11-14,59,46,32,34,29,25,100,60,27,30.43,30.35,30.28,10,10,10,8,1,,0.00,0,,193
2012-11-15,60,46,32,34,31,30,93,59,31,30.35,30.29,30.25,10,10,10,9,2,,0.00,0,,160
2012-11-16,62,48,33,36,31,28,93,61,27,30.43,30.37,30.33,10,10,10,7,0,,0.00,0,,114
2012-11-17,62,47,32,34,30,27,100,60,26,30.42,30.34,30.28,10,10,10,10,2,,0.00,0,,161
2012-11-18,64,53,42,37,34,30,66,48,30,30.30,30.23,30.18,10,10,10,15,4,20,0.00,4,,167
2012-11-19,71,62,53,52,46,36,88,58,42,30.20,30.16,30.10,10,10,10,12,5,18,0.00,4,Rain,183
2012-11-20,59,52,46,50,48,45,94,87,72,30.22,30.18,30.13,10,8,4,5,0,,0.00,0,,37
2012-11-21,77,60,42,50,45,39,100,63,26,30.27,30.19,30.09,10,9,3,12,2,17,0.00,0,,180
2012-11-22,71,63,55,52,48,45,88,59,41,30.11,30.05,29.98,10,10,10,16,5,26,0.00,0,,198
2012-11-23,62,52,41,52,28,19,77,39,22,30.48,30.38,30.15,10,10,10,25,12,33,0.00,2,,31
2012-11-24,59,44,28,27,22,16,86,46,19,30.45,30.27,30.07,10,10,10,9,2,,0.00,0,,191
2012-11-25,71,54,37,50,34,27,75,48,25,30.07,29.91,29.81,10,10,10,14,4,21,0.00,0,,184
2012-11-26,60,51,41,54,43,27,94,68,49,30.31,30.02,29.83,10,10,4,18,7,28,0.00,3,,7
2012-11-27,53,42,32,30,29,27,87,66,41,30.46,30.38,30.32,10,10,10,12,7,21,0.00,0,,23
2012-11-28,64,56,46,37,35,34,62,46,34,30.41,30.28,30.24,10,10,10,13,9,18,0.00,0,,170
2012-11-29,68,52,35,43,36,30,93,56,24,30.23,30.15,30.06,10,10,10,14,5,22,0.00,0,,172
2012-11-30,71,58,46,55,51,43,100,78,53,30.12,30.05,30.00,10,8,2,15,4,18,0.00,1,,172